STARLINK AR (44274 NORAD) Tracking and Keplerian Element Data

This shows tracking and keplerian element data for the satellite.

Feedback or suggestion? Click here.




ElementValue
Catalog44274
NameSTARLINK AR
Epoch Orbit424
Epoch Day171.29856284
Epoch Year2019
RAAN49.1683
Inclination53.0018
Eccentricity0.0005525
Argument of Perigee39.4134
Mean Anonmoly260.825
Mean Motion15.13187189
Decay Rate-0.00515875
L11 44274U 19029AR 19171.29856284 -.00515875 00000-0 -30481-1 0 9995
L22 44274 53.0018 49.1683 0005525 39.4134 260.8250 15.13187189 4249

Live tracking and technical data element details for STARLINK AR (NORAD 44274). STARLINK AR can be tracked NOW for your location showing map with azimuth and elevation plus other details from your city location.

Track the satellite on the map from your city or location and see movement details for azimuth, elevation, latitude, longitude, range, height, and movement on the map or in text.







IsCatalogInMostPopularTable: catalog: 44274, numindb: 38
Update: records affected: 1



GetName: 44274 STARLINK AR

Hit Count: updated at: Sun, 21 Jul 2019 21:42:47 GMT